Location: Unspecified
(43.4680°N, 87.1740°E)
Time: 14:45:20
(UTC+00:00)

Cosmos 1356 Rocket - Pass Details

Date: 06 August 2021
Orbit: 543 x 597 km, 81.2° (Epoch: 19 September)

Event Time Altitude Azimuth Distance (km) Brightness Sun altitude
Exits shadow 18:47:37 25° 43° (NE) 1,123 5.3 -29.7°
Drops below altitude 10° 18:49:36 10° 25° (NNE) 1,819 6.8 -29.6°
Sets 18:51:51 0° 18° (NNE) 2,719 8.0 -29.5°
